Weather in Volovchik

Russia / Lipetsk Oblast     52°01′16″N   37°48′54″E
temp.,
°C
wind,
m/s
gust,
m/s
humid.,
%
clouds,
%
prec.,
mm/h
press.,
hPa
HPBL,
m
20 april, tue
tue2000:00+7e599199 0.2 1015257
03:00+7e5995100 0.4 1015404
06:00+7e5992100 0.1 1014634
09:00+7e61090100 0.1 1013543
12:00+8ene5891100 0.2 1012576
15:00+9ene7980100 0.3 1009853
18:00+7ene71192100 0.3 1007596
21:00+5ne6994100 4.0 1004703
21 april, wed
wed2100:00+2nnw4698100 6.4 1002352
03:00+3w4997100 6.8 1003520
06:00+5wsw51093100 0.0 1005709
09:00+6wsw5990100 0.0 1008840
12:00+8wsw6873100 0.1 10101149
15:00+9sw687594 0.1 10111007
18:00+8sw457730 0.1 1013724
21:00+6s2388100 0.1 101538
22 april, thu
thu2200:00+6ssw369093 0.1 1015130
03:00+5sw37925 0.3 1016123
06:00+4ssw359149 0.0 1017110
09:00+10sw477024 0.0 1018558
12:00+12ssw576371 0.0 1019837
15:00+14ssw575976 0.6 10181360
18:00+13ssw486431 0.6 1019459
21:00+9s498092 0.8 1020161
23 april, fri
fri2300:00+8ssw378699 0.5 1020130
03:00+8ssw49855 0.5 1020147
06:00+7s498760 0.1 1021164
09:00+13ssw59655 0.3 1021561
12:00+16ssw675095 0.8 10201765
15:00+15s6955100 0.9 1019720
18:00+15s6105698 0.0 1018591
21:00+10sse4127586 0.0 1018232
24 april, sat
sat2400:00+11s51271100 0.0 1016326
03:00+9s51376100 0.0 1015282
06:00+8s41086100 0.1 1014246
09:00+11sw71074100 0.1 10141095
12:00+4wnw5794100 0.1 1017526
15:00+7wsw467172 1.4 10161040
18:00+9w586556 0.1 10151421
21:00+4w38730 0.1 1017203